Hourly Data Report for October 08, 2015

All times are specified in Local Standard Time (LST). Add 1 hour to adjust for Daylight Saving Time where and when it is observed.

RANKIN INLET A
NUNAVUT

62°48'38.000" N
92°06'53.000" W
32.30 m
2303405
71083
YRT

Download Data

Hourly Data (October 2015)
Hourly Data Report for October 8, 2015
Temp Definition
°C
Dew Point Temp Definition
°C
Rel Hum Definition
%
Wind Dir Definition
10's deg

Wind Spd Definition
km/h
Visibility Definition
km
Stn Press Definition
kPa
Hmdx Definition


Wind Chill Definition


Weather Definition


TIME
00:00 Legend Double Dagger -4.0 -5.6 89 6 24 16.1 100.47   -11 Snow
01:00 Legend Double Dagger -3.9 -5.3 90 6 24 16.1 100.40   -11 Snow
02:00 Legend Double Dagger -4.1 -5.5 90 5 31 16.1 100.40   -12 Snow
03:00 Legend Double Dagger -4.0 -5.4 90 5 31 24.1 100.39   -12 Snow
04:00 Legend Double Dagger -4.0 -5.4 90 3 42 6.4 100.41   -13 Snow
05:00 Legend Double Dagger -4.0 -5.6 89 2 36 9.7 100.47   -12 Snow
06:00 Legend Double Dagger -3.9 -5.5 89 2 33 6.4 100.52   -12 Snow,Blowing Snow
07:00 Legend Double Dagger -4.0 -5.9 87 2 36 3.2 100.57   -12 Snow,Blowing Snow
08:00 Legend Double Dagger -4.1 -6.1 86 1 35 3.2 100.63   -12 Snow,Blowing Snow
09:00 Legend Double Dagger -4.2 -7.8 76 36 29 16.1 100.67   -12 Snow
10:00 Legend Double Dagger -4.4 -7.2 81 35 30 24.1 100.72   -12 LegendNANA
11:00 Legend Double Dagger -4.2 -7.3 79 35 28 24.1 100.73   -12 LegendNANA
12:00 Legend Double Dagger -4.2 -7.3 79 33 22 24.1 100.75   -11 Mainly Clear
13:00 Legend Double Dagger -4.2 -7.5 78 32 21 24.1 100.78   -11 LegendNANA
14:00 Legend Double Dagger -3.8 -7.4 76 31 26 24.1 100.75   -11 LegendNANA
15:00 Legend Double Dagger -3.9 -7.4 77 32 43 16.1 100.75   -13 Mostly Cloudy
16:00 Legend Double Dagger -4.7 -10.1 66 33 36 24.1 100.79   -13 LegendNANA
17:00 Legend Double Dagger -4.7 -10.7 63 32 32 24.1 100.80   -13 LegendNANA
18:00 Legend Double Dagger -4.9 -9.9 68 31 36 24.1 100.80   -14 Mostly Cloudy
19:00 Legend Double Dagger -5.4 -9.2 75 29 37 24.1 100.79   -14 LegendNANA
20:00 Legend Double Dagger -5.2 -8.5 78 29 31 24.1 100.77   -13 LegendNANA
21:00 Legend Double Dagger -5.5 -8.8 78 29 32 24.1 100.71   -14 Mostly Cloudy
22:00 Legend Double Dagger -4.3 -7.1 81 30 44 24.1 100.66   -14 LegendNANA
23:00 Legend Double Dagger -4.9 -7.8 80 31 39 24.1 100.66   -14 LegendNANA

Notes on Data Quality.

Legend

  • E = Estimated
  • M = Missing
  • NA = Not Available
  • ‡ = Partner data that is not subject to review by the National Climate Archives
Date modified: